• In Deutschland
  • Länderverzeichnis
  • Für 7 Tage
  • Wassertemperatur
  • Satellitenkarten
  • Wetterkarte
  • Widgets
  • user-avatar
    Anmelden

    Stündliche Wetter Kitzbühel

    Heute, 25 Juli, Dienstag

    Zeit Temperatur Niederschläge Wind Luftdruck Luftfeuchtigkeit
    00:00 +9°C° 0,1 mm 2 m/S 672 mmHg 95%
    01:00 +8°C° 0,1 mm 2 m/S 672 mmHg 95%
    02:00 +8°C° 0,1 mm 2 m/S 672 mmHg 95%
    03:00 +8°C° 0,1 mm 2 m/S 672 mmHg 95%
    04:00 +8°C° 0,1 mm 2 m/S 672 mmHg 95%
    05:00 +9°C° 0,1 mm 2 m/S 672 mmHg 94%
    06:00 +10°C° 0,1 mm 2 m/S 672 mmHg 92%
    07:00 +10°C° 0,1 mm 2 m/S 672 mmHg 90%
    08:00 +12°C° 0,3 mm 2 m/S 672 mmHg 88%
    09:00 +13°C° 0,3 mm 2 m/S 672 mmHg 85%
    10:00 +13°C° 0,3 mm 2 m/S 672 mmHg 83%
    11:00 +14°C° 0,5 mm 2 m/S 672 mmHg 79%
    12:00 +14°C° 0,5 mm 3 m/S 672 mmHg 76%
    13:00 +16°C° 0,5 mm 3 m/S 672 mmHg 72%
    14:00 +14°C° 0,8 mm 3 m/S 672 mmHg 76%
    15:00 +14°C° 0,8 mm 3 m/S 672 mmHg 79%
    16:00 +13°C° 0,8 mm 3 m/S 672 mmHg 83%
    17:00 +14°C° 0,5 mm 2 m/S 672 mmHg 86%
    18:00 +13°C° 0,5 mm 2 m/S 672 mmHg 88%
    19:00 +12°C° 0,5 mm 2 m/S 672 mmHg 91%
    20:00 +10°C° 0,1 mm 2 m/S 672 mmHg 92%
    21:00 +10°C° 0,1 mm 2 m/S 672 mmHg 93%
    22:00 +10°C° 0,1 mm 1 m/S 672 mmHg 95%
    23:00 +10°C° 0,2 mm 1 m/S 671 mmHg 94%

    Morgen, 26 Juli, Mittwoch

    Zeit Temperatur Niederschläge Wind Luftdruck Luftfeuchtigkeit
    00:00 +10°C° 0,2 mm 1 m/S 671 mmHg 93%
    01:00 +10°C° 0,2 mm 1 m/S 671 mmHg 92%
    02:00 +9°C° 0,3 mm 2 m/S 671 mmHg 92%
    03:00 +9°C° 0,3 mm 2 m/S 671 mmHg 92%
    04:00 +9°C° 0,3 mm 2 m/S 670 mmHg 92%
    05:00 +9°C° 0,4 mm 2 m/S 670 mmHg 92%
    06:00 +10°C° 0,4 mm 2 m/S 670 mmHg 91%
    07:00 +10°C° 0,4 mm 2 m/S 671 mmHg 91%
    08:00 +10°C° 0,9 mm 2 m/S 671 mmHg 90%
    09:00 +12°C° 0,9 mm 2 m/S 671 mmHg 90%
    10:00 +12°C° 0,9 mm 2 m/S 671 mmHg 90%
    11:00 +11°C° 0,9 mm 3 m/S 672 mmHg 89%
    12:00 +11°C° 0,9 mm 3 m/S 672 mmHg 89%
    13:00 +11°C° 0,9 mm 3 m/S 672 mmHg 89%
    14:00 +11°C° 0,4 mm 3 m/S 672 mmHg 88%
    15:00 +12°C° 0,4 mm 3 m/S 673 mmHg 87%
    16:00 +12°C° 0,4 mm 3 m/S 673 mmHg 86%
    17:00 +12°C° 0,4 mm 2 m/S 673 mmHg 88%
    18:00 +12°C° 0,4 mm 2 m/S 673 mmHg 89%
    19:00 +12°C° 0,4 mm 2 m/S 673 mmHg 91%
    20:00 +10°C° 0,3 mm 2 m/S 673 mmHg 92%
    21:00 +10°C° 0,3 mm 2 m/S 674 mmHg 93%
    22:00 +9°C° 0,3 mm 2 m/S 674 mmHg 95%
    23:00 +9°C° 0,1 mm 2 m/S 674 mmHg 94%

    übermorgen, 27 Juli, Donnerstag

    Zeit Temperatur Niederschläge Wind Luftdruck Luftfeuchtigkeit
    00:00 +9°C° 0,1 mm 2 m/S 674 mmHg 93%
    01:00 +9°C° 0,1 mm 2 m/S 674 mmHg 93%
    02:00 +9°C° 0,1 mm 2 m/S 674 mmHg 92%
    03:00 +8°C° 0,1 mm 2 m/S 674 mmHg 92%
    04:00 +8°C° 0,1 mm 2 m/S 674 mmHg 91%
    05:00 +10°C° 0 mm 2 m/S 674 mmHg 88%
    06:00 +12°C° 0 mm 2 m/S 674 mmHg 84%
    07:00 +13°C° 0 mm 2 m/S 675 mmHg 81%
    08:00 +15°C° 0 mm 1 m/S 675 mmHg 71%
    09:00 +18°C° 0 mm 1 m/S 675 mmHg 61%
    10:00 +20°C° 0 mm 1 m/S 675 mmHg 51%
    11:00 +19°C° 0,6 mm 1 m/S 675 mmHg 60%
    12:00 +18°C° 0,6 mm 1 m/S 675 mmHg 70%
    13:00 +16°C° 0,6 mm 1 m/S 675 mmHg 79%
    14:00 +16°C° 1,5 mm 1 m/S 675 mmHg 82%
    15:00 +15°C° 1,5 mm 1 m/S 675 mmHg 85%
    16:00 +15°C° 1,5 mm 1 m/S 675 mmHg 87%
    17:00 +15°C° 0,2 mm 1 m/S 675 mmHg 87%
    18:00 +15°C° 0,2 mm 1 m/S 675 mmHg 87%
    19:00 +15°C° 0,2 mm 1 m/S 675 mmHg 87%
    20:00 +14°C° 0,1 mm 1 m/S 675 mmHg 88%
    21:00 +13°C° 0,1 mm 1 m/S 675 mmHg 90%
    22:00 +12°C° 0,1 mm 1 m/S 675 mmHg 91%
    23:00 +12°C° 0,1 mm 1 m/S 675 mmHg 91%

    28 Juli, Freitag

    Zeit Temperatur Niederschläge Wind Luftdruck Luftfeuchtigkeit
    00:00 +11°C° 0,1 mm 1 m/S 675 mmHg 91%
    01:00 +11°C° 0,1 mm 1 m/S 675 mmHg 90%
    02:00 +12°C° 0,1 mm 1 m/S 675 mmHg 90%
    03:00 +12°C° 0,1 mm 1 m/S 675 mmHg 89%
    04:00 +12°C° 0,1 mm 1 m/S 675 mmHg 89%
    05:00 +13°C° 0,7 mm 1 m/S 675 mmHg 88%
    06:00 +14°C° 0,7 mm 1 m/S 675 mmHg 88%
    07:00 +14°C° 0,7 mm 1 m/S 676 mmHg 88%
    08:00 +16°C° 0,5 mm 1 m/S 676 mmHg 85%
    09:00 +18°C° 0,5 mm 1 m/S 677 mmHg 81%
    10:00 +19°C° 0,5 mm 2 m/S 677 mmHg 78%
    11:00 +19°C° 0,7 mm 2 m/S 677 mmHg 77%
    12:00 +20°C° 0,7 mm 2 m/S 677 mmHg 76%
    13:00 +20°C° 0,7 mm 2 m/S 677 mmHg 76%
    14:00 +20°C° 0,6 mm 2 m/S 678 mmHg 75%
    15:00 +20°C° 0,6 mm 2 m/S 678 mmHg 75%
    16:00 +20°C° 0,6 mm 3 m/S 678 mmHg 75%
    17:00 +19°C° 0,3 mm 2 m/S 678 mmHg 80%
    18:00 +18°C° 0,3 mm 2 m/S 678 mmHg 85%
    19:00 +18°C° 0,3 mm 1 m/S 678 mmHg 90%
    20:00 +16°C° 0 mm 1 m/S 679 mmHg 92%
    21:00 +14°C° 0 mm 1 m/S 679 mmHg 94%
    22:00 +13°C° 0 mm 1 m/S 679 mmHg 96%
    23:00 +13°C° 0 mm 1 m/S 679 mmHg 96%

    29 Juli, Samstag

    Zeit Temperatur Niederschläge Wind Luftdruck Luftfeuchtigkeit
    00:00 +12°C° 0 mm 1 m/S 679 mmHg 96%
    01:00 +12°C° 0 mm 1 m/S 679 mmHg 96%
    02:00 +12°C° 0 mm 1 m/S 679 mmHg 96%
    03:00 +12°C° 0 mm 1 m/S 679 mmHg 96%
    04:00 +11°C° 0 mm 1 m/S 679 mmHg 96%
    05:00 +13°C° 0 mm 1 m/S 679 mmHg 93%
    06:00 +14°C° 0 mm 1 m/S 680 mmHg 91%
    07:00 +16°C° 0 mm 1 m/S 680 mmHg 88%
    08:00 +19°C° 0 mm 1 m/S 680 mmHg 79%
    09:00 +22°C° 0 mm 1 m/S 681 mmHg 70%
    10:00 +24°C° 0 mm 2 m/S 681 mmHg 61%
    11:00 +24°C° 0,1 mm 2 m/S 681 mmHg 60%
    12:00 +25°C° 0,1 mm 2 m/S 681 mmHg 60%
    13:00 +26°C° 0,1 mm 2 m/S 681 mmHg 59%
    14:00 +25°C° 0,9 mm 2 m/S 680 mmHg 64%
    15:00 +25°C° 0,9 mm 2 m/S 680 mmHg 70%
    16:00 +24°C° 0,9 mm 2 m/S 680 mmHg 75%
    17:00 +23°C° 1,4 mm 1 m/S 680 mmHg 81%
    18:00 +21°C° 1,4 mm 1 m/S 680 mmHg 86%
    19:00 +20°C° 1,4 mm 1 m/S 680 mmHg 91%
    20:00 +19°C° 1,7 mm 1 m/S 680 mmHg 92%
    21:00 +19°C° 1,7 mm 1 m/S 680 mmHg 92%
    22:00 +18°C° 1,7 mm 1 m/S 680 mmHg 93%
    23:00 +18°C° 0,2 mm 1 m/S 680 mmHg 92%

    30 Juli, Sonntag

    Zeit Temperatur Niederschläge Wind Luftdruck Luftfeuchtigkeit
    00:00 +18°C° 0,2 mm 1 m/S 680 mmHg 92%
    01:00 +16°C° 0,2 mm 1 m/S 680 mmHg 91%
    02:00 +16°C° 0,1 mm 1 m/S 680 mmHg 89%
    03:00 +16°C° 0,1 mm 1 m/S 680 mmHg 87%
    04:00 +16°C° 0,1 mm 1 m/S 680 mmHg 85%
    05:00 +18°C° 0 mm 1 m/S 680 mmHg 83%
    06:00 +19°C° 0 mm 1 m/S 680 mmHg 80%
    07:00 +20°C° 0 mm 1 m/S 680 mmHg 78%
    08:00 +22°C° 0 mm 1 m/S 681 mmHg 68%
    09:00 +24°C° 0 mm 1 m/S 681 mmHg 57%
    10:00 +27°C° 0 mm 1 m/S 681 mmHg 47%
    11:00 +27°C° 0 mm 1 m/S 681 mmHg 45%
    12:00 +28°C° 0 mm 2 m/S 681 mmHg 43%
    13:00 +29°C° 0 mm 2 m/S 680 mmHg 41%
    14:00 +29°C° 0 mm 2 m/S 680 mmHg 44%
    15:00 +28°C° 0 mm 2 m/S 680 mmHg 46%
    16:00 +28°C° 0 mm 2 m/S 679 mmHg 49%
    17:00 +26°C° 0,2 mm 2 m/S 679 mmHg 59%
    18:00 +25°C° 0,2 mm 2 m/S 679 mmHg 69%
    19:00 +23°C° 0,2 mm 1 m/S 678 mmHg 80%
    20:00 +21°C° 0 mm 2 m/S 678 mmHg 82%
    21:00 +19°C° 0 mm 2 m/S 678 mmHg 84%
    22:00 +18°C° 0 mm 2 m/S 677 mmHg 86%
    23:00 +18°C° 0 mm 2 m/S 677 mmHg 86%
    Mehr zeigen